STARLINK-11393, 62016

Orbit data source: Space-Track

STARLINK-11393, 62016 is a payload satellite owned by SpaceX/Seattle (US) in LEO that was launched on Mon, 18 Nov 2024 UTC via an FALCON 9 launch vehicle from the Air Force Western Test Range (AFWTR). Payload-class satellites include a variety of spacecraft equipped with specific instruments for various scientific and technological missions. These include communications satellites like Starlink; space stations such as the ISS; scientific satellites like the Hubble; Earth observation satellites from companies like Planet Labs, Umbra, and HawkEye 360; GPS; miniature CubeSats for education and research; and military/defense satellites.

Loading next visibility...
Identifier
62016, 2024-213J
Orbit
LEO
Country
Flag of USUS
Related business
Manufacturer
SpaceX/Seattle
Mission
Operational Commercial Communications
Bus & Motor
STARLINK V2MD, Unknown motor
Mass
960 kg wet, ~910 kg dry
Launch date (UTC)
2024-11-18 (10 months ago)
Launch vehicle
FALCON 9
Launch site
Air Force Western Test Range (AFWTR)
Object type
Payload
Rocket body
Debris
Shape & HBR
Box + 2 Pan, 14.5 m
Radar Cross Section
36.964 m², Large (>1 m²)

Expand to show TLE details & history
Last TLE update: 15 hours ago

TLE from 15 hours ago
0 STARLINK-11393
1 62016U 24213J   25260.22005554  .00153322  00000-0  12452-2 0  9997
2 62016  53.1572 176.1219 0002174  34.7547 325.3613 15.69746059 47670
Epoch: 2025-09-17T05:16Z
TLE epoch observation values (Epoch: 2025-09-17T05:16:52.798Z)
Latitude
Longitude
100.50277°
Altitude
359.333 km
Speed
7.696 km/s
True Right ascension
11h 44m 29s
True Declination
0° 00' 00"
Sunlit
Object was in daylight at epoch
Visualization orbit readout
Latitude
Unknown
Longitude
Unknown
Altitude
Unknown
Speed
Unknown
Apparent Right ascension
Unknown
Apparent Declination
Unknown
Sunlit
N/A
Visualization observer readout
Local Sidereal Time
12:40:46
Azimuth
Unknown
Elevation
Unknown
Doppler factor
Unknown
Orbital elements
Apogee altitude
361.35 km
Perigee altitude
358.42 km
Semi-major axis
6,738.022 km
Eccentricity
0.00022
Inclination
53.1572°
RAAN
176.1219°
Arg. of periapsis
34.7547°
True anomaly
325.34714°
Mean anomaly
325.3613°
Eccentric anomaly
325.35422°
Mean motion
3.92414 °/min
Orbital period
91.74 mins
BSTAR
0.0012452
Loading maneuver chart data...
Computing Atmospheric mass density...
Loading historical data...
Loading historical data...
Loading historical data...
Loading historical data...
Loading historical data...
Loading historical data...
Loading historical data...

Documentation

Showing up to 5 results
|